Wind_Speed
33 33 33 32 32 32 32 32 31 31 31 32 33 32 32 31 32 33 34 36 37 38 40 41 42 43 45 47 48 50 51 53 54 55 55 53 51 49 50 50 51 51 52 52 53 53 52 53 54 55 56 58 59 60 61 62 64 65 66 68 69 71 71 71 71 72 72 74 74 74 74 73 73 72 71 71 70 69 69 68 67 67 66 63 62 61 62 63
31 31 31 31 30 30 29 29 29 30 30 31 32 31 31 31 32 34 36 38 39 41 42 43 45 47 48 50 51 52 54 55 56 56 53 51 50 51 52 52 52 52 53 53 54 54 55 55 56 57 59 61 62 63 64 65 65 65 66 66 66 66 64 63 62 62 61 62 62 62 61 60 60 60 59 59 58 55 55 56 55 56 55 53 51 51 52 54
29 29 28 28 28 28 27 28 29 30 30 31 31 32 33 34 36 37 39 40 41 43 44 45 47 50 51 52 54 55 55 56 55 53 51 51 52 53 54 53 53 53 54 54 55 56 57 58 59 61 62 64 64 64 63 62 60 59 57 56 56 54 52 50 49 49 49 50 50 50 50 50 49 49 49 50 49 47 46 47 48 49 48 47 45 46 47 49
28 27 26 26 26 26 26 28 29 29 30 32 32 34 35 37 39 40 41 42 43 45 46 48 50 52 53 54 55 56 56 54 52 51 51 53 53 54 54 54 54 55 55 56 57 59 60 61 62 62 61 60 59 56 54 51 48 46 44 44 44 42 41 40 40 41 41 42 42 42 43 44 43 43 43 44 45 44 43 44 46 48 48 47 46 46 46 47
27 26 26 25 25 26 27 28 29 30 32 33 34 36 37 39 41 42 42 43 45 47 48 50 52 54 54 55 55 54 52 51 51 52 53 54 54 54 55 55 56 56 57 59 60 60 60 59 57 55 52 49 46 43 40 38 36 35 35 36 37 37 36 37 38 39 39 39 40 41 43 44 43 42 43 44 45 46 46 46 47 49 50 51 51 50 50 50
27 27 27 27 27 28 29 30 31 32 34 35 36 38 39 40 42 43 44 45 47 49 50 52 53 54 54 53 51 50 49 50 52 53 54 55 55 55 56 56 57 58 59 58 57 54 51 48 44 41 38 35 33 31 30 30 30 31 32 34 35 36 37 38 39 41 41 41 41 43 46 47 46 46 46 47 48 49 50 51 51 52 53 55 55 56 56 56
28 28 28 28 29 30 31 32 32 34 35 36 38 39 40 41 43 44 46 48 49 50 51 52 52 51 49 48 47 48 50 51 53 53 54 55 55 56 57 58 57 56 53 49 44 40 36 33 31 29 28 27 27 28 28 29 30 32 34 36 37 39 39 41 42 43 44 44 44 45 48 50 50 50 50 50 51 53 54 54 55 56 57 58 59 60 60 61
29 29 29 29 30 31 32 33 34 35 36 38 39 40 42 43 45 46 48 49 49 49 49 48 46 45 45 46 48 50 51 52 53 53 54 55 56 56 55 52 48 43 38 34 30 28 26 25 25 25 26 27 28 29 30 32 33 35 37 39 41 42 43 45 46 47 47 47 47 48 51 53 54 55 55 55 56 57 58 58 59 60 61 62 62 63 64 65
30 30 30 30 30 31 33 34 35 36 38 39 40 42 43 45 46 46 47 47 46 44 43 42 42 44 46 48 50 50 51 52 53 54 54 53 51 47 42 37 33 29 26 24 23 23 23 24 25 26 28 29 31 32 34 35 37 38 40 42 44 46 47 49 50 52 52 52 52 52 54 56 58 59 60 61 61 62 63 63 64 65 66 66 67 68 68 69
30 30 30 30 31 32 33 35 36 38 40 41 42 43 43 44 43 43 41 40 40 39 40 41 44 46 47 49 49 50 52 52 52 50 47 42 37 32 28 25 24 23 22 22 23 24 25 27 28 29 31 33 35 36 38 39 40 41 43 46 48 50 51 53 55 57 57 57 57 57 57 60 62 64 65 66 67 68 68 69 70 70 71 71 72 73 73 74
30 30 31 31 32 34 35 37 39 40 40 40 40 40 40 39 38 37 37 37 38 40 42 44 45 46 48 49 49 50 49 46 43 38 33 28 24 22 21 21 21 22 23 25 26 27 29 30 32 33 35 37 39 40 42 43 45 46 47 50 52 54 56 57 59 61 62 62 62 61 62 63 66 68 70 72 73 74 74 75 75 76 77 77 78 79 79 80
30 31 32 33 34 36 37 38 38 37 37 36 35 35 34 34 35 35 37 38 40 42 43 44 46 47 47 47 45 42 38 33 29 25 22 20 19 20 20 22 23 25 27 28 30 31 32 34 35 37 39 41 42 44 46 48 49 51 52 54 56 58 60 62 63 65 67 67 67 66 66 67 70 72 74 76 77 78 79 80 81 82 83 83 84 84 85 85
30 32 33 34 35 35 35 34 33 32 32 32 32 32 33 34 35 37 38 40 41 42 44 45 44 43 40 36 32 28 25 22 20 19 19 19 20 22 23 25 27 28 30 32 33 35 36 38 39 41 43 45 46 48 50 52 53 55 57 58 60 61 63 66 67 68 70 71 71 71 70 70 73 76 77 79 80 82 83 84 85 86 87 88 89 90 90 91
30 31 31 31 31 30 30 29 29 29 30 30 31 32 34 35 36 38 39 40 41 42 41 39 35 31 26 22 20 18 18 18 18 19 20 22 23 25 27 29 30 32 34 35 37 39 40 42 43 45 47 48 50 51 53 54 56 58 60 62 64 65 66 68 69 71 73 74 75 75 74 73 75 78 79 81 82 84 85 87 88 88 90 91 92 93 94 95
26 26 26 26 26 26 27 27 28 28 29 31 32 33 34 35 37 38 38 38 37 34 30 26 22 18 16 15 15 15 16 18 20 22 24 25 27 29 31 33 34 36 37 39 41 42 44 45 47 48 50 52 53 55 56 57 59 61 62 64 66 68 70 71 72 73 75 77 78 78 78 78 79 80 82 83 85 87 88 89 90 91 92 94 95 96 97 98
23 23 23 24 24 25 26 27 28 29 30 31 32 33 34 35 35 33 32 29 26 22 18 15 13 13 13 13 15 17 19 21 23 25 27 28 30 32 34 36 37 39 40 42 44 46 47 49 50 51 53 54 56 57 59 60 61 63 64 66 68 70 72 74 76 76 77 79 80 81 81 81 82 82 84 85 86 88 90 91 92 93 94 95 96 98 99 99
21 22 22 23 24 24 25 26 27 29 30 31 31 31 30 29 26 24 21 17 14 12 11 11 11 12 14 15 18 20 22 25 27 29 30 32 34 35 37 39 40 42 43 45 47 48 50 51 52 53 55 56 58 59 61 63 64 66 67 68 70 72 73 74 76 78 79 80 81 81 82 82 83 83 84 86 87 88 90 91 92 94 94 95 96 98 98 99
20 21 22 22 23 24 25 26 26 27 27 26 25 23 20 18 15 13 10 9 8 8 9 11 13 15 17 19 21 24 26 28 30 32 34 36 37 39 40 42 43 45 46 48 49 50 51 53 54 56 57 59 60 61 63 64 65 66 67 68 70 72 74 74 75 77 78 79 81 81 82 83 83 84 85 87 88 89 91 92 93 94 95 96 97 98 98 99
20 21 21 22 22 22 22 21 20 19 18 17 15 13 11 10 8 6 5 6 7 9 11 14 16 18 20 23 25 27 29 31 33 34 36 38 40 41 42 44 45 46 47 49 51 52 54 55 56 57 59 59 60 61 62 64 65 65 66 67 67 69 72 73 74 75 76 77 79 80 81 82 83 84 85 86 87 89 90 91 92 93 95 96 97 98 98 99
19 19 18 17 16 15 13 12 11 10 9 9 9 8 6 5 4 4 6 8 10 13 15 18 20 22 24 26 28 30 32 33 35 36 38 40 41 42 44 45 46 48 49 50 52 53 54 55 56 57 58 58 59 60 61 62 63 64 65 66 66 67 69 72 73 74 75 75 76 77 78 80 81 83 84 86 88 89 90 91 91 92 94 95 96 96 97 98
14 13 11 10 9 8 7 6 6 6 6 6 5 4 3 3 4 6 9 11 14 16 19 21 23 24 26 27 29 31 33 35 36 38 40 41 43 44 45 47 48 49 50 50 51 52 54 54 55 56 56 57 58 58 60 61 63 64 65 66 67 67 68 72 74 75 76 77 78 78 78 80 83 84 87 89 90 91 92 92 93 94 94 95 96 97 98 98
10 9 9 8 8 8 9 9 8 8 7 5 3 2 3 5 7 10 12 14 17 19 20 22 24 26 27 29 31 33 34 36 37 39 41 43 44 46 46 47 48 48 49 49 50 51 51 52 53 54 55 57 58 60 61 63 64 66 67 68 69 70 70 72 75 77 79 80 80 81 80 81 84 85 87 89 91 92 93 93 94 95 96 97 98 98 99 99
13 13 13 13 13 12 11 10 8 6 4 2 1 4 6 9 11 13 14 16 18 20 22 24 25 27 29 31 32 34 36 37 39 41 43 44 44 45 45 46 46 47 47 48 48 49 50 51 53 55 57 58 61 63 65 66 68 69 70 71 72 73 73 73 74 77 80 82 83 83 82 82 84 86 88 90 92 92 93 94 95 96 97 97 98 99 99 100
18 17 16 15 13 12 9 7 4 2 1 3 5 7 9 11 13 14 16 18 20 22 23 25 27 28 30 32 34 36 37 39 40 41 42 42 43 44 44 45 45 45 46 47 48 50 51 53 55 57 58 60 62 64 66 68 70 71 72 73 73 75 76 77 77 77 79 82 85 85 83 82 83 86 88 91 92 93 94 95 96 96 97 98 98 99 99 99
18 17 15 13 11 8 6 4 3 4 5 6 8 9 11 12 14 16 18 20 21 23 25 26 28 31 32 34 35 37 38 38 38 39 40 40 41 41 42 43 44 45 47 49 50 52 54 55 57 59 60 62 63 65 67 69 70 72 73 74 75 75 77 78 78 78 79 81 84 86 84 82 81 84 88 91 91 92 94 95 96 97 97 98 98 98 98 99
16 13 11 9 8 6 5 4 4 5 6 7 9 10 12 14 16 18 19 21 23 24 26 28 30 32 33 34 35 36 36 37 37 37 38 38 39 39 41 44 46 48 50 51 53 54 56 58 59 61 62 63 64 66 68 70 71 72 73 74 75 76 77 78 78 79 79 80 83 85 86 83 81 83 88 90 91 92 94 95 96 96 97 98 99 100 100 100
12 10 9 7 6 5 4 4 4 6 8 10 11 13 14 16 17 19 20 22 24 26 28 30 31 32 33 33 33 33 33 34 35 36 36 38 39 41 44 46 49 50 52 53 54 55 57 58 61 62 63 64 65 67 68 71 72 73 74 74 75 76 76 77 78 78 78 79 82 84 86 85 83 84 88 90 92 93 94 95 96 97 99 100 101 101 102 102
10 9 7 6 5 4 4 5 7 9 11 12 14 15 16 18 20 21 22 24 26 28 30 31 31 31 31 31 32 32 32 33 34 36 39 41 43 44 46 47 49 50 52 52 54 56 57 58 61 63 64 65 66 67 69 71 72 73 73 73 74 75 75 76 76 77 76 77 80 83 85 85 83 84 89 90 91 93 94 95 96 98 100 101 102 103 103 103
8 7 6 5 5 6 8 10 11 12 13 15 16 17 19 20 21 22 24 26 28 29 30 30 29 29 29 29 29 30 31 34 36 38 40 42 43 44 45 46 47 49 51 53 54 56 57 58 60 62 63 65 66 67 69 71 72 72 72 73 74 74 75 75 75 75 74 74 78 82 84 86 84 84 88 90 91 92 92 93 95 97 99 99 100 101 101 102
7 7 7 8 9 10 11 13 14 15 16 17 19 20 21 21 22 24 26 28 28 27 27 26 26 25 26 26 27 29 32 35 38 39 41 42 43 44 47 49 50 52 53 54 55 56 57 58 59 60 61 64 66 67 69 70 71 71 72 71 71 72 72 73 73 73 73 72 75 79 81 85 87 85 86 88 90 91 91 91 93 94 96 97 97 98 98 98
8 9 10 11 12 13 14 15 16 17 18 20 21 21 22 22 23 25 26 26 25 24 24 24 23 24 25 27 29 32 35 37 38 40 42 43 45 47 49 51 53 54 54 54 54 54 54 55 56 58 59 61 64 66 68 69 69 70 71 70 69 68 68 68 69 70 70 70 73 76 76 80 85 85 84 84 86 88 89 90 92 93 93 94 94 94 94 93
10 11 12 14 15 16 17 17 18 18 20 21 22 22 23 23 24 25 24 23 22 22 22 22 24 25 28 30 32 34 35 37 38 39 39 41 42 44 45 46 48 50 51 53 53 53 53 54 56 57 58 58 60 62 64 65 66 67 68 68 67 66 64 64 65 64 64 66 71 75 75 76 81 83 82 81 83 85 86 88 90 90 90 89 90 90 89 88
12 14 15 16 17 17 18 17 18 20 22 22 22 22 23 23 22 21 20 20 20 21 22 24 26 29 31 32 34 35 35 36 36 37 38 40 41 42 43 45 47 48 50 51 52 53 53 54 54 55 56 57 57 59 60 62 63 65 67 69 70 70 69 68 68 67 64 64 69 76 78 79 81 80 81 80 79 80 81 83 85 85 84 84 85 86 85 84
15 16 16 17 17 17 17 18 21 22 22 22 22 22 22 21 19 19 19 20 20 22 24 26 29 30 32 32 33 34 35 36 37 39 40 42 44 46 47 48 48 49 50 51 52 53 53 53 54 55 57 58 60 61 63 65 66 68 71 73 75 77 77 77 77 77 74 70 71 76 81 86 86 81 80 80 78 79 81 81 81 80 80 82 83 82 83 83
17 17 16 16 17 17 18 21 23 23 22 22 22 22 20 19 18 18 19 21 22 24 26 27 28 29 30 31 33 34 35 37 39 41 43 45 46 47 47 48 49 49 50 51 53 55 56 56 57 59 61 62 64 66 68 70 71 72 74 76 78 79 80 81 81 81 81 78 77 78 81 89 92 85 81 80 79 81 83 81 80 80 82 84 83 81 81 82
17 17 16 17 18 19 22 24 23 22 22 22 22 21 19 18 19 19 21 22 24 26 27 28 29 30 31 33 34 36 38 40 43 45 46 47 48 48 49 49 49 50 51 52 53 55 58 60 62 64 66 67 69 70 72 73 74 75 77 79 80 81 82 83 81 81 81 80 80 80 82 88 92 86 82 81 81 84 86 84 83 83 83 82 79 78 78 79
17 17 17 19 21 24 25 25 23 22 22 22 21 19 18 19 20 21 23 25 26 27 28 29 30 32 33 35 37 40 42 45 47 49 50 50 51 51 51 52 52 53 53 54 55 57 60 63 66 68 69 71 72 73 74 76 77 78 79 81 82 83 85 87 87 84 81 80 80 81 85 91 92 88 84 83 85 89 89 86 84 83 82 78 74 74 74 75
18 18 20 22 25 26 26 23 22 22 22 22 20 19 19 20 22 23 25 26 27 28 29 30 31 32 33 37 41 44 47 50 51 52 53 53 53 53 54 55 55 56 57 58 59 60 62 65 68 71 72 73 75 76 76 78 79 80 81 83 85 86 86 88 91 91 87 84 82 80 85 94 95 90 87 86 90 94 92 87 84 83 81 76 73 72 72 70
19 21 23 25 27 27 24 21 21 23 22 21 19 19 21 22 24 25 26 26 27 28 30 31 32 34 37 41 45 48 51 53 54 55 55 55 56 56 57 57 58 59 60 61 62 64 65 66 69 72 74 75 77 77 78 79 79 80 81 82 84 86 86 87 90 94 92 89 85 80 82 94 99 95 91 90 93 96 94 88 84 81 78 75 73 73 71 68
21 23 25 27 28 25 21 21 23 23 21 20 20 21 23 24 26 26 26 27 28 30 31 33 36 40 43 46 49 51 53 54 55 56 57 57 58 59 60 60 61 62 63 65 66 67 68 68 69 72 75 77 78 78 79 81 82 81 82 83 84 86 87 87 88 91 94 93 90 84 82 92 101 99 94 93 95 96 95 90 84 78 74 70 70 72 69 66
23 25 27 28 26 22 21 23 24 21 20 21 22 23 25 26 27 27 27 28 30 32 34 38 42 45 47 49 51 53 54 55 56 57 58 59 60 61 62 63 64 65 66 67 68 69 70 70 71 73 75 78 79 80 82 83 83 83 84 85 87 88 89 90 89 90 93 95 95 91 87 93 101 101 96 95 95 96 94 88 80 73 70 68 67 68 67 64
25 27 28 26 23 21 23 25 22 20 21 22 24 26 27 27 27 27 28 30 33 36 40 43 45 47 49 51 53 54 55 56 58 59 60 62 63 63 64 65 66 67 68 68 70 71 72 72 73 75 77 79 81 82 82 83 84 85 86 87 88 89 90 93 93 93 93 95 97 94 88 92 100 101 98 97 95 94 92 85 75 68 67 68 66 63 63 62
27 27 27 24 22 23 25 24 21 22 23 24 26 27 28 28 28 29 31 34 38 41 44 45 47 49 51 52 54 56 57 59 60 61 63 64 65 66 67 68 68 69 69 70 71 73 75 76 76 76 77 79 81 81 82 83 84 85 86 87 88 90 91 93 95 95 94 95 99 95 86 87 96 98 97 96 94 92 88 81 72 65 63 66 65 61 59 58
28 27 25 23 22 23 24 23 22 23 25 26 28 28 28 29 30 32 35 38 42 44 45 47 48 51 53 55 57 58 60 61 63 64 66 67 67 69 69 70 70 71 71 72 73 75 77 80 82 82 82 82 84 85 85 85 86 87 88 90 90 92 93 94 95 95 91 92 100 100 89 85 90 93 93 94 94 91 85 77 71 67 63 62 60 58 56 54
28 25 22 21 22 24 24 23 23 25 27 28 29 29 30 31 33 37 40 42 44 44 46 48 51 53 56 57 60 61 63 65 66 67 69 70 70 71 72 72 73 73 74 74 76 77 79 82 86 88 90 91 93 94 93 92 91 91 92 93 93 94 95 96 97 96 92 90 96 101 95 85 83 87 88 90 92 90 82 75 71 69 66 62 58 55 53 52
25 22 21 21 22 24 24 23 25 27 28 29 30 31 33 35 38 41 42 43 44 46 48 51 53 56 58 60 62 64 66 68 69 70 72 72 73 74 74 74 75 75 76 77 78 79 80 82 86 90 92 94 95 96 96 95 94 93 94 94 95 96 97 98 99 98 96 91 89 94 98 91 84 85 87 88 90 88 82 74 69 66 64 62 57 54 52 51
22 20 21 21 23 23 23 25 27 28 29 30 32 34 37 39 41 42 42 44 45 47 50 52 54 57 59 62 64 66 68 70 72 73 74 75 76 76 76 76 77 77 78 78 79 80 81 83 85 88 90 92 93 95 95 95 95 95 95 95 96 97 98 98 100 100 99 95 88 86 91 91 87 87 88 89 90 87 78 70 65 63 62 60 57 54 52 51
20 20 21 21 23 23 24 26 27 28 30 32 35 37 40 41 42 42 43 45 47 49 51 53 55 57 59 61 64 67 70 72 74 75 76 77 78 78 78 78 78 79 79 80 81 82 83 84 85 86 89 90 92 94 94 94 95 96 96 97 97 98 98 99 100 100 100 100 96 90 88 90 91 90 88 87 87 84 75 68 64 63 62 60 59 57 54 51
19 20 20 22 23 24 25 26 28 29 32 35 37 39 40 40 41 42 44 46 48 50 52 54 56 57 59 61 64 66 69 72 74 76 77 78 79 80 80 80 80 80 80 81 82 83 84 85 86 86 88 89 91 93 95 95 95 96 97 97 97 98 100 101 101 99 97 98 100 98 94 92 93 92 88 85 84 82 74 69 67 65 63 61 59 57 55 52
18 20 21 22 23 24 25 27 28 31 33 36 37 38 39 40 41 43 44 46 49 51 53 55 57 58 60 62 64 66 69 72 74 76 77 79 80 81 81 81 81 82 82 83 85 86 86 87 87 87 88 89 90 93 95 96 95 96 97 97 97 98 99 102 103 101 97 94 94 96 94 91 90 89 86 84 84 81 72 66 65 65 63 61 58 56 54 52
19 20 21 22 23 24 25 27 30 32 34 36 36 37 38 40 41 43 46 48 50 52 54 56 58 60 61 63 64 66 69 72 74 76 77 79 80 82 82 83 83 84 85 85 86 87 88 89 89 89 89 91 92 93 95 96 97 97 97 97 98 98 98 101 105 105 104 100 96 93 90 86 85 82 78 78 81 81 71 63 61 60 60 59 57 54 53 52
19 20 21 22 23 24 25 28 30 32 34 35 35 36 38 40 42 44 47 50 52 54 55 57 59 61 62 64 65 67 69 72 74 76 78 80 81 83 84 84 85 86 87 88 88 89 90 91 91 92 92 92 94 96 97 97 97 98 99 100 101 101 100 102 104 106 107 106 102 98 92 86 83 79 74 73 77 79 72 63 58 55 54 55 56 54 53 51
Wind_Direction
204 207 210 213 216 219 222 225 229 233 237 241 244 247 252 256 261 266 270 273 277 279 281 283 285 287 288 289 290 291 293 293 293 293 293 292 291 290 290 290 290 291 291 291 291 291 291 291 291 291 290 289 288 287 286 286 285 284 283 282 281 280 280 279 279 278 277 277 276 276 276 276 276 276 276 275 275 275 276 277 277 276 276 276 276 275 273 272
206 209 212 215 219 223 226 230 235 239 243 247 251 255 260 265 269 272 275 277 280 282 284 286 287 288 289 290 291 292 293 293 293 293 292 291 291 291 291 291 291 292 292 292 292 292 292 292 291 290 290 289 288 287 286 285 285 284 283 282 281 280 280 280 279 278 277 277 277 277 277 277 277 278 278 278 278 278 279 279 278 277 276 276 275 274 273 272
208 212 216 220 223 228 232 237 242 246 251 255 259 263 267 271 273 275 277 278 280 282 284 286 287 288 289 290 291 292 293 293 292 291 290 291 291 292 292 292 292 293 293 293 293 293 293 292 291 290 289 288 287 287 286 285 284 283 283 282 281 281 281 281 280 280 279 279 279 280 281 281 281 281 282 282 283 282 281 281 280 278 277 276 275 274 274 273
212 217 222 226 231 236 240 245 249 254 258 262 265 268 270 272 274 275 277 279 281 282 284 285 286 287 289 290 291 292 292 291 290 290 290 291 291 291 292 293 293 294 294 294 294 293 293 292 291 289 288 287 287 286 286 285 285 284 284 283 284 285 285 284 283 282 282 282 284 285 285 284 284 284 284 285 286 285 284 283 283 282 281 280 278 275 274 273
217 223 228 233 238 243 248 252 256 260 263 265 267 269 271 272 274 276 278 280 281 283 284 285 286 287 289 290 290 290 289 289 289 290 290 291 292 292 293 293 294 294 294 294 293 292 291 290 289 289 288 287 287 287 287 287 287 287 287 287 287 288 287 287 286 285 284 285 286 288 287 286 286 285 285 285 285 285 284 283 282 282 281 281 279 277 275 273
222 227 233 237 242 247 252 256 260 263 265 267 268 269 271 273 275 277 279 280 281 283 284 285 286 287 288 288 287 287 287 288 289 290 291 292 292 293 294 294 294 294 294 293 292 291 291 290 290 289 290 290 290 290 290 290 290 290 289 288 287 288 287 287 286 286 286 287 288 288 287 287 286 286 285 284 283 283 282 281 280 279 279 278 278 277 276 275
226 231 236 240 245 249 254 258 261 264 266 268 269 271 272 274 275 277 279 280 282 283 284 285 285 285 285 285 285 286 287 288 289 290 291 292 292 293 294 294 294 293 293 292 292 291 291 291 291 291 292 293 293 293 292 291 290 290 289 288 288 288 288 287 286 286 286 286 287 286 285 285 285 285 284 283 282 281 280 279 278 278 277 277 276 276 276 275
229 234 238 243 247 252 256 259 263 265 268 269 270 272 273 274 276 278 279 281 282 283 283 283 283 283 284 285 286 287 288 289 289 290 291 292 292 293 293 293 293 292 291 290 290 290 291 292 293 294 294 294 293 292 291 290 290 290 289 289 289 288 288 287 286 285 285 285 284 283 283 284 284 283 283 282 280 279 278 277 276 275 275 274 274 274 274 273
231 236 241 245 250 254 258 261 264 266 268 270 272 273 275 276 278 279 280 281 281 281 281 281 282 283 284 285 286 287 288 289 290 290 291 292 292 293 293 292 291 290 289 289 289 290 291 292 293 293 293 293 292 292 291 291 291 290 290 289 288 288 287 286 285 284 284 283 282 281 281 282 282 282 281 281 279 278 276 275 275 274 273 273 272 272 272 271
234 239 244 248 253 256 260 263 265 267 269 271 273 275 276 277 278 278 278 278 278 278 279 280 282 283 284 285 286 287 288 289 290 291 291 292 292 291 290 288 287 288 289 290 290 291 292 293 293 293 294 294 293 293 292 291 289 288 287 286 285 285 284 284 284 283 283 282 281 281 281 281 281 281 280 280 279 278 277 276 275 274 274 273 272 272 271 270
237 242 247 251 255 258 261 264 266 268 270 272 273 274 275 275 275 275 275 276 277 279 280 282 283 284 285 286 287 288 289 290 290 290 290 289 288 286 286 286 288 289 291 293 293 294 295 295 295 295 295 294 293 291 290 289 288 286 285 285 284 284 284 283 283 284 284 283 283 282 282 282 281 281 281 280 280 280 279 278 278 277 276 275 274 273 272 271
241 245 249 253 256 259 262 264 266 267 269 270 270 270 270 271 273 274 276 278 280 281 282 284 285 286 287 288 289 289 289 289 288 287 285 283 283 284 287 290 292 294 295 296 296 297 297 296 295 294 293 292 291 290 289 289 288 287 286 285 285 285 285 285 284 284 285 285 284 283 282 282 282 281 280 280 281 281 280 280 279 279 278 277 276 275 274 273
243 247 250 253 256 258 260 262 263 264 265 265 266 267 270 272 275 277 279 281 282 283 284 285 286 287 287 288 288 287 287 285 282 280 281 283 288 292 294 297 298 298 298 298 297 297 296 295 294 293 292 291 291 290 289 289 288 287 287 286 285 284 284 284 284 284 283 283 283 283 282 281 281 280 280 280 280 279 279 279 278 278 277 277 276 275 274 274
242 245 248 251 253 254 256 257 258 260 261 264 267 270 273 275 278 280 281 282 283 284 284 285 285 285 285 285 285 284 282 281 281 285 289 293 297 299 300 300 300 299 298 297 296 296 295 294 293 292 292 291 290 289 288 287 287 287 286 286 286 285 284 284 284 284 284 284 284 283 283 282 281 280 280 280 280 279 279 278 278 277 277 276 275 274 274 273
237 240 242 244 246 248 251 254 257 261 264 267 271 273 275 277 279 280 281 282 282 282 282 281 281 281 281 281 282 283 286 289 292 296 300 301 301 301 301 301 300 298 297 296 295 295 294 293 292 292 291 291 290 289 289 288 288 288 288 288 288 288 288 287 287 287 287 287 287 287 286 285 284 284 283 283 282 281 281 280 279 278 277 277 276 275 274 274
231 234 237 241 245 249 254 257 261 264 268 270 273 275 276 278 279 280 280 279 278 277 276 276 277 279 282 286 290 293 297 300 300 301 302 302 301 300 300 299 298 296 295 294 294 293 293 293 293 292 292 292 291 291 291 291 290 290 290 290 290 290 291 291 291 290 290 289 289 289 289 288 287 286 285 284 284 283 282 281 281 280 279 278 278 277 276 276
231 236 241 246 250 254 257 261 264 267 269 272 273 275 276 277 276 274 273 271 271 273 275 278 282 287 292 295 299 301 302 303 303 303 302 302 300 299 297 296 295 294 294 294 294 294 294 295 295 295 294 294 294 294 294 294 294 293 293 294 294 293 293 293 293 293 292 291 291 290 290 289 288 287 286 285 285 284 283 283 282 282 281 280 280 279 279 278
237 241 245 249 253 256 259 262 265 267 269 271 273 273 271 268 264 261 262 265 272 278 284 290 294 297 298 301 304 306 305 305 304 302 300 299 298 297 296 296 295 295 296 296 297 297 298 298 298 297 297 296 296 296 296 296 296 296 296 295 295 295 294 294 293 292 292 292 292 291 291 290 290 289 288 287 287 286 285 285 284 283 283 282 282 281 281 280
239 243 247 250 253 256 259 261 263 266 267 266 263 257 251 245 243 248 260 275 286 293 298 302 304 305 306 306 306 305 303 301 299 298 297 297 296 296 296 296 297 298 299 300 300 300 300 300 299 298 298 298 298 298 298 297 297 296 295 294 294 293 293 293 292 291 291 290 290 291 290 290 290 290 289 288 287 287 286 285 285 284 284 283 283 283 282 281
237 240 243 245 247 249 251 252 251 249 246 240 232 224 219 223 238 262 280 291 299 306 308 309 310 309 307 305 302 300 299 298 297 297 297 297 297 297 298 299 301 302 302 302 301 301 300 300 300 300 300 300 299 299 298 297 296 296 295 295 294 293 293 293 293 292 292 292 291 291 292 292 292 292 291 290 289 288 287 287 287 286 286 285 285 284 284 283
223 223 222 221 218 214 207 199 192 188 187 189 192 191 201 242 275 290 301 308 310 312 310 309 307 304 302 300 299 299 298 297 297 297 298 299 300 302 303 304 304 303 303 303 303 303 303 303 303 302 302 301 301 300 300 300 299 299 298 298 298 297 297 297 297 296 296 296 295 295 295 295 294 294 293 291 290 290 289 289 289 288 288 287 287 286 285 285
183 178 170 162 156 151 149 147 150 154 157 163 179 216 272 298 309 312 313 313 310 307 304 303 301 300 300 299 299 299 298 299 301 302 304 305 306 306 305 305 304 305 306 306 306 306 305 304 304 305 305 306 306 305 304 303 302 301 301 301 300 300 299 298 297 297 297 297 296 296 296 295 294 293 291 290 290 290 290 290 289 289 288 288 287 287 286 285
139 135 132 131 131 132 135 137 139 146 154 174 283 310 316 319 320 316 310 306 302 300 300 301 301 301 300 301 302 304 306 307 308 308 308 308 307 306 307 308 309 310 309 308 308 308 308 309 309 310 310 310 308 307 306 304 303 303 302 302 301 300 300 298 297 297 297 297 296 296 297 296 294 293 291 291 290 291 291 291 290 289 289 288 288 287 287 286
123 124 125 125 126 126 125 122 119 109 15 340 329 326 323 318 313 307 303 301 300 300 301 303 304 305 305 307 309 310 311 310 310 309 308 309 311 312 313 313 312 312 311 312 313 313 313 313 312 312 310 309 307 305 304 303 303 303 302 302 302 302 301 301 300 299 298 298 297 297 297 297 295 293 292 292 292 293 292 291 291 290 290 290 289 289 288 288
121 121 120 118 116 112 101 84 51 13 352 336 326 320 315 309 306 304 303 302 303 304 305 307 309 311 312 313 313 313 312 312 311 313 314 317 317 316 315 315 315 316 317 317 317 316 315 313 312 310 309 307 306 304 303 303 303 304 304 304 304 303 303 302 301 300 299 298 297 297 297 296 295 293 292 293 294 293 292 292 292 292 292 291 291 291 291 290
116 114 110 104 96 83 64 40 14 353 334 320 316 314 310 308 307 308 309 311 312 313 312 313 315 315 316 316 316 316 316 318 319 320 320 319 318 317 319 320 321 321 321 319 318 316 314 312 310 309 309 308 307 306 306 306 306 306 305 305 304 304 303 303 302 302 301 300 299 299 299 299 298 295 294 295 295 294 293 294 294 294 294 293 293 293 293 292
106 100 93 83 71 58 37 12 349 331 322 321 320 317 315 316 317 320 321 319 317 316 316 318 319 320 320 319 319 320 322 324 323 322 321 321 323 325 326 325 323 322 320 319 317 315 314 312 311 311 311 311 309 309 308 307 306 306 305 305 305 305 305 304 304 304 304 302 301 301 300 301 301 297 296 296 296 295 295 296 296 296 295 294 294 294 293 293
91 85 78 70 57 37 10 350 341 335 332 330 327 326 328 330 330 328 324 318 317 319 321 323 324 324 324 325 327 328 328 327 326 327 329 330 330 329 327 324 322 320 319 319 318 317 316 315 314 314 314 312 311 309 308 307 307 308 308 308 308 307 307 306 306 306 305 303 301 301 300 301 301 298 296 296 295 295 296 295 295 294 294 293 293 293 292 292
82 76 65 48 28 10 359 352 347 342 339 337 337 338 339 336 330 323 319 320 324 327 328 328 329 330 331 332 332 331 330 332 334 335 334 332 330 328 325 323 323 322 322 322 322 320 319 318 317 316 315 313 312 311 311 311 311 312 311 311 311 310 309 307 306 305 304 302 301 300 301 301 299 297 296 296 295 295 294 294 293 292 292 291 291 291 291 291
63 49 34 22 12 5 360 355 351 349 347 347 347 344 339 330 322 321 325 330 332 331 331 332 334 334 333 332 331 333 337 338 338 335 334 332 330 330 329 329 330 329 328 327 326 325 324 322 321 320 318 317 317 316 316 315 315 314 313 312 311 310 308 306 305 304 303 301 299 299 300 299 297 297 296 296 297 296 295 295 294 292 292 291 291 291 290 290
37 28 20 14 9 4 0 358 356 355 353 352 349 342 332 324 325 331 335 335 335 334 336 337 336 335 335 337 339 342 343 341 338 337 337 337 338 338 338 337 336 334 332 331 331 330 328 327 326 325 324 323 322 320 319 318 317 316 315 313 311 309 306 304 302 301 301 300 298 298 298 297 296 297 298 298 298 298 298 297 296 294 294 294 293 293 292 291
26 20 15 11 8 5 3 1 359 357 355 351 344 335 330 333 338 340 338 337 339 341 341 340 340 341 344 346 347 346 344 342 341 340 341 342 343 342 341 339 338 338 337 336 335 334 334 334 333 331 329 327 325 323 321 321 319 317 315 313 311 309 306 304 303 302 303 303 303 302 301 300 299 299 301 301 300 300 300 298 296 296 296 295 295 294 294 293
20 17 14 11 8 8 5 0 358 357 353 346 338 335 341 347 346 342 341 344 345 346 345 346 348 349 350 350 349 347 345 344 343 343 344 344 343 342 342 342 342 342 341 340 339 339 339 338 336 334 332 330 329 327 325 324 322 320 319 317 316 315 315 314 313 313 313 311 309 309 309 307 304 304 304 304 302 301 300 298 298 298 298 297 296 296 296 296
20 18 14 11 10 7 0 357 358 355 347 341 342 349 354 353 347 347 350 351 351 352 353 355 355 354 353 351 349 348 348 348 348 348 348 347 347 346 346 345 345 344 343 342 341 340 339 339 337 336 335 334 333 332 331 329 328 327 325 324 324 323 323 323 322 322 321 319 317 315 315 313 310 310 310 308 307 306 304 303 302 302 302 302 301 301 301 300
21 18 12 11 9 1 358 0 357 350 345 348 357 2 0 355 355 357 358 356 357 359 359 359 358 356 354 352 351 352 353 353 354 352 351 351 350 349 347 346 346 345 345 344 342 341 340 339 339 338 337 337 337 337 335 333 332 330 329 328 328 327 326 326 325 324 323 323 322 321 320 316 313 315 315 313 312 311 310 308 308 308 308 307 307 307 305 302
19 15 11 10 5 0 2 0 353 349 354 4 10 8 2 1 3 2 1 3 4 3 2 1 0 358 357 356 356 357 358 358 357 354 353 352 351 350 349 348 347 346 346 345 343 342 341 340 341 340 340 340 340 339 337 335 333 332 331 330 329 328 328 327 326 325 324 324 325 324 322 318 317 318 318 316 317 315 313 313 313 312 311 310 310 309 305 300
18 13 9 7 3 4 3 357 354 360 8 16 17 9 4 5 7 7 8 9 7 6 5 3 2 1 1 1 0 1 1 359 358 355 354 353 352 351 350 349 349 348 347 346 345 344 343 342 342 342 341 341 341 340 338 336 335 334 333 331 331 330 330 328 326 326 326 327 328 327 325 322 321 321 321 321 321 318 315 315 315 314 313 312 312 309 303 300
16 10 7 6 4 6 2 357 4 14 19 22 17 7 7 11 13 14 14 12 10 8 7 5 5 5 5 5 4 2 1 359 357 356 354 353 353 352 351 350 350 349 348 348 347 346 345 343 342 342 341 340 341 341 339 337 336 335 334 333 332 332 332 330 327 328 330 330 330 331 329 326 325 324 324 324 323 319 316 316 317 317 316 316 314 308 303 301
12 7 7 6 6 8 3 4 16 23 24 23 14 10 15 18 20 20 17 14 11 9 9 8 8 8 7 7 5 3 0 359 358 356 355 354 354 353 353 352 351 350 349 349 348 346 345 344 342 341 340 341 341 341 339 338 337 336 334 333 332 332 332 331 328 327 329 331 332 332 333 330 326 326 326 325 322 319 317 317 318 319 319 319 315 308 305 304
9 8 7 7 10 10 6 14 27 28 25 21 17 20 24 24 24 22 18 15 13 12 12 12 11 10 8 7 5 3 1 360 358 357 356 356 355 354 353 352 351 351 350 349 348 346 344 343 342 341 340 340 341 340 340 339 339 337 334 333 333 333 333 332 330 328 328 331 333 334 337 333 327 326 327 324 322 319 317 318 321 322 321 319 314 308 307 306
9 9 9 11 15 12 12 26 32 28 24 25 26 28 28 27 26 22 18 17 16 16 16 15 13 10 8 6 5 4 3 1 360 359 358 357 356 355 354 353 352 351 351 350 348 346 344 342 342 341 340 340 341 341 341 340 339 336 335 335 335 335 334 333 333 332 331 333 334 334 338 335 327 326 327 324 322 319 318 320 323 324 323 319 313 310 310 309
10 11 12 16 19 18 25 35 34 28 31 32 32 32 30 29 26 22 21 20 20 19 18 15 12 10 9 8 7 6 5 4 2 0 359 358 357 356 355 354 353 351 350 349 347 345 344 343 342 342 341 341 341 341 341 340 339 337 336 336 337 336 335 334 335 335 335 335 333 334 339 335 328 327 327 323 321 320 320 322 326 328 326 319 315 315 314 311
12 13 16 22 25 27 35 39 35 34 37 35 35 34 31 29 27 25 24 24 23 21 18 16 13 12 12 10 10 9 7 5 3 2 1 359 358 357 356 355 353 352 350 349 347 345 344 344 344 343 342 341 341 341 341 340 339 339 338 338 338 337 336 336 336 336 338 337 333 334 339 336 330 328 326 323 321 321 323 325 328 330 327 320 318 318 315 312
14 17 22 28 31 34 40 40 39 39 38 37 37 35 32 32 29 28 27 26 25 22 19 18 16 15 14 12 11 9 8 6 5 3 2 0 359 358 357 355 354 352 350 349 348 346 345 344 344 344 343 343 342 342 342 342 341 341 340 339 339 338 337 338 337 336 339 340 335 334 338 337 331 329 327 323 321 323 326 328 331 332 327 322 320 319 315 313
19 24 30 34 36 40 44 43 41 40 39 40 39 37 35 34 32 30 29 28 26 23 21 20 18 16 15 13 11 9 8 7 5 4 2 1 360 359 357 356 354 353 351 350 349 347 346 345 344 344 344 344 344 344 344 344 343 342 341 340 340 338 338 340 338 337 340 342 338 334 335 337 334 331 329 324 323 325 329 332 336 334 327 323 323 320 317 315
24 30 35 37 42 47 47 44 42 43 43 43 41 38 37 35 34 33 31 29 27 24 23 21 18 17 14 12 10 8 7 6 4 4 3 1 1 359 358 357 355 353 352 350 349 348 347 346 345 345 345 345 345 344 345 345 343 342 341 341 340 339 340 341 338 337 340 342 341 337 336 337 336 335 332 327 325 328 331 334 337 332 325 325 325 323 320 319
29 36 40 43 49 51 48 45 46 47 45 43 41 39 38 36 36 34 31 29 27 24 23 20 18 16 13 11 9 7 6 5 4 3 2 1 1 359 358 357 355 354 352 351 350 349 348 347 347 346 345 345 344 344 345 344 343 342 342 341 341 340 341 341 339 338 340 342 343 341 338 337 338 338 336 332 328 328 330 335 336 330 327 327 327 325 324 322
36 41 45 51 54 52 48 48 49 48 45 42 40 39 39 37 36 34 30 28 26 24 22 19 16 14 12 10 8 6 4 3 3 2 1 1 0 359 358 357 356 354 353 351 350 349 349 348 348 347 346 345 345 344 345 345 343 343 342 342 342 340 341 342 340 340 341 342 343 344 342 341 340 340 339 334 329 327 331 338 337 332 331 331 330 328 327 325
42 47 52 57 56 52 50 51 49 46 43 41 41 40 39 37 35 32 29 27 25 22 20 18 15 13 10 8 6 5 4 2 2 1 0 360 359 359 358 357 355 354 353 352 350 350 349 349 349 349 347 346 346 344 344 345 344 343 343 343 342 341 342 342 340 340 343 344 344 345 345 344 342 341 340 336 330 328 334 341 339 335 335 334 332 331 329 328
48 54 60 60 55 52 53 51 47 44 42 41 41 41 39 36 33 30 27 24 22 20 18 15 13 11 8 6 5 3 2 1 1 360 359 359 358 358 357 356 355 354 353 352 351 350 350 349 350 350 348 347 347 345 345 345 345 344 343 343 343 343 343 342 340 341 344 347 348 347 345 345 343 341 341 339 332 329 337 344 341 337 336 334 332 332 330 329
55 61 64 59 54 54 53 48 45 43 42 42 41 40 37 34 30 27 24 21 19 17 15 13 10 8 7 4 3 2 1 0 360 359 358 358 358 357 357 356 355 354 353 352 351 350 350 350 350 349 349 348 347 346 345 346 346 344 343 344 344 344 345 343 341 342 346 348 349 348 346 345 343 341 342 341 334 330 337 345 342 338 337 334 333 333 331 329
62 66 64 58 54 53 51 46 43 42 41 41 41 38 34 30 27 24 22 19 17 15 12 10 9 7 5 3 2 1 360 359 359 358 358 358 357 356 356 355 354 354 353 352 351 351 350 349 349 349 349 348 347 347 347 346 345 344 344 346 346 345 346 346 344 345 347 347 348 348 346 345 343 342 344 344 338 333 337 344 342 339 338 336 334 333 331 330
Height
10726 10729 10731 10733 10735 10737 10739 10741 10743 10744 10745 10745 10745 10745 10745 10746 10746 10745 10744 10743 10742 10741 10740 10739 10738 10737 10736 10734 10733 10732 10730 10728 10726 10725 10723 10721 10719 10717 10715 10713 10711 10709 10707 10705 10703 10702 10701 10699 10697 10694 10691 10688 10686 10684 10681 10679 10676 10674 10671 10667 10663 10659 10656 10654 10652 10649 10644 10639 10636 10634 10632 10631 10628 10625 10624 10622 10622 10623 10621 10620 10617 10613 10613 10614 10613 10610 10607 10603
10725 10728 10730 10732 10734 10736 10738 10740 10741 10742 10742 10742 10742 10742 10743 10743 10742 10741 10740 10739 10739 10738 10737 10736 10735 10733 10732 10730 10729 10727 10726 10724 10722 10720 10718 10716 10714 10712 10710 10708 10707 10705 10703 10700 10698 10696 10695 10693 10691 10688 10684 10681 10678 10676 10673 10670 10667 10665 10661 10656 10652 10649 10647 10645 10642 10639 10635 10631 10628 10626 10624 10623 10620 10618 10616 10613 10614 10616 10614 10611 10608 10604 10603 10604 10603 10600 10596 10592
10724 10726 10729 10731 10733 10735 10736 10737 10738 10739 10739 10739 10739 10740 10740 10739 10738 10737 10737 10736 10736 10735 10734 10733 10731 10729 10728 10726 10725 10723 10722 10720 10717 10715 10713 10711 10709 10707 10705 10703 10702 10700 10698 10695 10693 10691 10688 10686 10683 10680 10677 10673 10669 10667 10664 10661 10658 10655 10652 10647 10643 10641 10639 10637 10634 10631 10627 10624 10621 10620 10618 10616 10613 10612 10609 10607 10606 10607 10607 10602 10598 10595 10593 10594 10594 10591 10587 10584
10723 10725 10727 10729 10731 10733 10734 10734 10735 10736 10736 10736 10737 10737 10737 10736 10735 10734 10734 10734 10733 10732 10731 10729 10727 10725 10724 10722 10721 10719 10717 10715 10713 10711 10708 10706 10705 10702 10700 10698 10696 10694 10692 10690 10687 10684 10681 10678 10675 10671 10668 10665 10661 10659 10656 10653 10651 10648 10645 10640 10636 10634 10633 10630 10627 10624 10621 10618 10616 10615 10612 10609 10607 10606 10603 10602 10599 10598 10598 10595 10590 10586 10584 10583 10583 10582 10580 10577
10721 10723 10726 10728 10729 10730 10731 10732 10733 10733 10734 10734 10734 10734 10733 10732 10732 10731 10731 10731 10730 10728 10727 10726 10723 10722 10720 10719 10717 10715 10713 10711 10708 10706 10703 10701 10699 10697 10695 10693 10691 10689 10686 10683 10680 10677 10673 10670 10666 10663 10660 10658 10655 10653 10650 10647 10645 10642 10639 10635 10631 10628 10627 10624 10620 10618 10616 10614 10612 10609 10605 10602 10601 10600 10598 10596 10594 10591 10589 10588 10585 10581 10577 10574 10573 10572 10571 10570
10720 10722 10724 10726 10727 10728 10729 10730 10731 10731 10731 10731 10731 10731 10730 10730 10729 10729 10728 10727 10726 10725 10723 10722 10720 10718 10717 10715 10713 10711 10709 10706 10704 10702 10699 10696 10694 10692 10690 10687 10685 10682 10679 10676 10672 10669 10666 10663 10660 10657 10655 10652 10650 10647 10645 10642 10639 10636 10633 10630 10626 10623 10621 10618 10615 10612 10610 10609 10608 10604 10599 10595 10594 10594 10592 10590 10588 10585 10582 10580 10578 10575 10572 10568 10565 10563 10562 10561
10718 10721 10722 10724 10726 10727 10728 10728 10729 10729 10729 10729 10728 10727 10727 10727 10727 10726 10725 10724 10723 10721 10720 10718 10717 10715 10713 10711 10709 10707 10705 10702 10700 10697 10694 10692 10689 10687 10684 10681 10678 10675 10672 10669 10666 10663 10660 10658 10655 10653 10650 10647 10645 10642 10639 10636 10634 10631 10627 10624 10620 10617 10615 10612 10609 10606 10605 10604 10603 10599 10594 10590 10588 10587 10586 10584 10582 10578 10576 10573 10571 10568 10565 10563 10560 10557 10554 10553
10717 10719 10721 10722 10724 10725 10726 10726 10726 10726 10726 10725 10725 10725 10724 10724 10723 10723 10722 10721 10719 10718 10716 10715 10713 10711 10709 10707 10705 10702 10700 10698 10695 10693 10690 10687 10684 10681 10678 10675 10672 10669 10666 10664 10661 10658 10656 10653 10651 10648 10645 10642 10640 10637 10634 10632 10629 10626 10622 10618 10615 10612 10609 10606 10602 10599 10599 10599 10597 10594 10589 10584 10581 10580 10578 10577 10575 10571 10569 10566 10563 10561 10558 10555 10553 10550 10547 10544
10716 10717 10719 10721 10722 10723 10723 10723 10723 10723 10723 10722 10722 10722 10721 10720 10720 10719 10718 10717 10716 10714 10713 10711 10709 10707 10705 10703 10701 10698 10696 10693 10690 10687 10684 10682 10679 10676 10673 10670 10667 10664 10661 10659 10656 10654 10651 10649 10646 10644 10641 10638 10635 10632 10630 10627 10624 10621 10617 10613 10609 10606 10603 10599 10596 10593 10593 10593 10592 10589 10585 10580 10575 10572 10570 10568 10565 10563 10560 10557 10555 10552 10549 10547 10544 10541 10538 10535
10714 10716 10717 10719 10720 10720 10721 10721 10720 10720 10719 10719 10719 10718 10718 10717 10716 10716 10715 10714 10712 10711 10709 10708 10706 10703 10701 10699 10697 10694 10691 10688 10685 10682 10679 10676 10674 10671 10668 10665 10662 10660 10657 10655 10652 10650 10647 10645 10642 10640 10637 10634 10631 10628 10625 10622 10620 10616 10613 10608 10604 10600 10597 10593 10589 10586 10586 10586 10585 10584 10580 10575 10570 10565 10562 10559 10555 10552 10550 10547 10545 10542 10540 10537 10534 10531 10528 10525
10712 10714 10715 10716 10717 10718 10718 10717 10717 10717 10716 10716 10716 10715 10715 10714 10713 10712 10711 10710 10709 10707 10705 10703 10701 10699 10697 10694 10692 10689 10685 10682 10680 10677 10674 10672 10669 10667 10664 10662 10659 10656 10654 10651 10649 10646 10644 10641 10638 10636 10633 10630 10627 10623 10620 10617 10614 10611 10608 10603 10598 10594 10591 10588 10583 10579 10577 10577 10577 10576 10574 10569 10563 10558 10552 10548 10545 10542 10539 10537 10534 10532 10529 10526 10523 10520 10517 10515
10710 10712 10713 10714 10715 10715 10714 10714 10714 10714 10714 10714 10713 10712 10712 10711 10710 10709 10708 10706 10705 10703 10701 10699 10697 10694 10692 10689 10686 10683 10680 10677 10675 10672 10670 10668 10666 10663 10661 10658 10656 10653 10651 10648 10645 10643 10640 10637 10635 10632 10629 10626 10622 10619 10615 10612 10608 10605 10602 10598 10593 10588 10583 10580 10576 10572 10568 10567 10567 10567 10567 10562 10555 10550 10544 10539 10535 10532 10529 10525 10522 10519 10516 10514 10511 10508 10505 10502
10708 10709 10711 10711 10712 10711 10711 10711 10711 10711 10711 10711 10710 10710 10709 10708 10707 10706 10704 10703 10701 10699 10697 10694 10692 10689 10687 10684 10681 10679 10676 10674 10671 10669 10667 10665 10663 10660 10658 10656 10653 10650 10648 10645 10642 10639 10636 10634 10631 10628 10624 10621 10618 10614 10610 10606 10602 10598 10594 10590 10586 10582 10577 10572 10568 10565 10561 10558 10557 10557 10558 10555 10547 10540 10536 10531 10527 10522 10518 10515 10511 10507 10504 10500 10497 10494 10492 10489
10706 10707 10708 10708 10709 10708 10709 10709 10709 10709 10708 10708 10707 10707 10706 10705 10703 10702 10700 10699 10696 10694 10692 10690 10687 10685 10682 10680 10677 10675 10673 10671 10669 10667 10665 10663 10661 10658 10656 10653 10650 10648 10644 10641 10638 10635 10632 10629 10626 10623 10619 10615 10611 10608 10604 10600 10595 10591 10587 10582 10577 10574 10570 10566 10561 10557 10552 10549 10547 10546 10546 10545 10539 10532 10528 10523 10518 10513 10508 10503 10499 10496 10491 10487 10483 10480 10477 10474
10703 10704 10705 10706 10706 10706 10706 10706 10706 10706 10706 10705 10704 10703 10702 10701 10700 10698 10696 10694 10692 10690 10688 10685 10683 10681 10679 10677 10675 10673 10671 10669 10667 10665 10663 10661 10658 10655 10652 10650 10647 10644 10640 10637 10634 10630 10627 10624 10621 10617 10613 10609 10605 10601 10598 10594 10589 10585 10580 10575 10570 10565 10560 10557 10554 10550 10545 10540 10537 10535 10533 10531 10527 10522 10517 10512 10506 10500 10495 10490 10486 10482 10477 10473 10468 10464 10461 10459
10701 10702 10703 10703 10704 10704 10704 10704 10704 10703 10703 10702 10701 10700 10699 10697 10696 10694 10692 10690 10688 10686 10684 10682 10681 10679 10677 10675 10673 10672 10670 10668 10665 10663 10661 10658 10655 10652 10649 10646 10643 10639 10636 10632 10629 10626 10622 10619 10616 10612 10607 10603 10599 10595 10591 10587 10582 10578 10574 10569 10563 10559 10554 10547 10543 10540 10536 10532 10527 10524 10521 10517 10514 10510 10505 10499 10493 10486 10480 10475 10471 10467 10463 10458 10453 10449 10445 10442
10699 10700 10701 10701 10701 10701 10701 10701 10701 10700 10699 10699 10698 10696 10695 10694 10692 10691 10689 10687 10686 10684 10682 10681 10679 10677 10676 10674 10672 10670 10667 10665 10663 10660 10657 10654 10652 10649 10645 10642 10638 10635 10631 10628 10624 10621 10617 10614 10610 10606 10601 10597 10592 10588 10583 10579 10575 10570 10565 10562 10556 10550 10547 10542 10534 10529 10525 10520 10516 10513 10508 10504 10500 10496 10491 10485 10480 10474 10468 10462 10457 10452 10448 10444 10439 10434 10431 10428
10698 10698 10698 10699 10699 10698 10698 10698 10698 10697 10696 10695 10694 10693 10692 10691 10690 10688 10687 10685 10684 10682 10681 10680 10678 10676 10674 10672 10669 10667 10665 10662 10659 10657 10653 10650 10647 10644 10641 10637 10634 10630 10627 10623 10620 10616 10612 10608 10603 10599 10594 10590 10586 10581 10577 10572 10568 10564 10558 10554 10549 10541 10536 10533 10528 10521 10516 10510 10505 10501 10497 10492 10488 10483 10478 10472 10467 10461 10455 10450 10444 10439 10434 10429 10424 10420 10417 10413
10695 10695 10696 10696 10696 10696 10696 10695 10695 10694 10694 10693 10692 10691 10690 10689 10688 10687 10685 10684 10683 10681 10680 10678 10676 10674 10672 10669 10667 10665 10662 10659 10656 10653 10650 10647 10644 10640 10637 10633 10630 10627 10623 10619 10615 10610 10606 10602 10597 10592 10588 10584 10580 10575 10571 10566 10561 10557 10552 10548 10544 10537 10528 10523 10519 10513 10509 10504 10497 10493 10488 10482 10477 10472 10466 10460 10454 10448 10442 10437 10432 10427 10421 10415 10410 10406 10402 10398
10693 10693 10693 10694 10694 10694 10694 10693 10693 10692 10692 10691 10691 10690 10689 10688 10687 10686 10685 10683 10682 10680 10678 10676 10674 10672 10670 10667 10665 10662 10659 10656 10653 10650 10646 10643 10640 10636 10633 10629 10626 10622 10618 10614 10610 10605 10600 10596 10591 10586 10582 10578 10574 10569 10565 10560 10554 10549 10544 10539 10536 10532 10523 10514 10510 10504 10499 10496 10490 10485 10481 10474 10467 10460 10454 10447 10440 10434 10428 10424 10420 10414 10408 10403 10397 10392 10387 10382
10691 10692 10692 10692 10692 10692 10692 10692 10692 10692 10692 10691 10690 10689 10688 10687 10686 10685 10684 10682 10680 10679 10677 10675 10672 10670 10667 10665 10662 10659 10656 10653 10650 10646 10643 10640 10636 10632 10629 10625 10621 10618 10614 10609 10604 10599 10594 10589 10585 10580 10576 10571 10567 10562 10557 10552 10546 10541 10536 10530 10525 10522 10516 10506 10499 10494 10488 10484 10479 10475 10471 10464 10456 10449 10441 10432 10425 10419 10414 10410 10405 10400 10394 10389 10383 10377 10372 10366
10691 10691 10691 10692 10692 10692 10692 10692 10692 10692 10691 10691 10690 10689 10688 10687 10685 10684 10682 10680 10679 10677 10675 10672 10670 10667 10665 10662 10659 10656 10653 10650 10646 10642 10639 10635 10631 10628 10624 10620 10616 10612 10608 10603 10599 10594 10589 10584 10579 10574 10569 10564 10558 10553 10549 10543 10538 10532 10527 10522 10516 10512 10508 10501 10491 10484 10477 10472 10467 10463 10461 10455 10445 10437 10428 10419 10412 10406 10401 10396 10390 10384 10379 10373 10367 10361 10356 10350
10691 10692 10692 10693 10693 10693 10693 10693 10692 10692 10691 10690 10689 10688 10687 10686 10684 10682 10681 10679 10677 10675 10672 10670 10667 10665 10662 10659 10656 10653 10649 10646 10642 10638 10635 10631 10627 10623 10619 10615 10611 10607 10603 10598 10594 10589 10583 10578 10573 10568 10563 10557 10551 10545 10540 10534 10529 10524 10518 10514 10508 10501 10497 10493 10486 10477 10468 10460 10453 10450 10450 10444 10434 10424 10414 10405 10399 10394 10388 10381 10375 10369 10363 10357 10351 10345 10340 10334
10692 10693 10693 10694 10694 10694 10693 10693 10692 10691 10691 10690 10689 10688 10686 10684 10683 10681 10679 10677 10675 10672 10670 10668 10665 10662 10659 10656 10653 10649 10646 10642 10639 10635 10631 10627 10622 10618 10613 10610 10606 10602 10598 10593 10588 10582 10577 10573 10568 10562 10557 10552 10546 10539 10533 10526 10520 10515 10509 10504 10498 10491 10484 10479 10475 10469 10460 10450 10440 10436 10438 10435 10424 10411 10400 10391 10387 10382 10375 10367 10360 10355 10349 10343 10337 10330 10325 10320
10694 10694 10694 10694 10694 10694 10693 10693 10692 10691 10690 10689 10688 10686 10685 10683 10681 10679 10677 10675 10673 10670 10668 10665 10662 10659 10656 10652 10649 10645 10642 10638 10635 10631 10627 10622 10618 10614 10609 10605 10601 10596 10592 10587 10582 10577 10572 10567 10562 10556 10551 10546 10540 10534 10527 10520 10513 10507 10500 10493 10487 10481 10475 10468 10462 10457 10451 10442 10431 10424 10424 10425 10419 10403 10388 10381 10377 10370 10361 10354 10348 10341 10335 10328 10321 10315 10309 10304
10695 10695 10695 10695 10694 10693 10693 10692 10691 10690 10689 10688 10687 10685 10683 10681 10679 10677 10675 10672 10670 10667 10665 10662 10659 10656 10652 10649 10645 10642 10638 10634 10630 10626 10623 10619 10615 10611 10606 10600 10595 10591 10586 10582 10577 10572 10566 10561 10555 10550 10545 10539 10532 10526 10518 10511 10505 10498 10491 10485 10479 10473 10467 10460 10453 10447 10441 10431 10421 10415 10408 10408 10409 10394 10378 10371 10364 10356 10346 10340 10334 10327 10320 10312 10304 10298 10292 10285
10695 10695 10695 10694 10694 10693 10693 10692 10691 10690 10689 10687 10685 10683 10681 10679 10677 10675 10672 10670 10667 10665 10662 10659 10656 10652 10649 10646 10642 10639 10635 10631 10626 10623 10619 10616 10611 10607 10602 10597 10591 10586 10582 10578 10573 10567 10561 10555 10548 10542 10537 10530 10523 10516 10509 10502 10497 10491 10486 10480 10473 10466 10459 10452 10444 10437 10431 10420 10410 10403 10394 10392 10393 10380 10365 10359 10349 10340 10334 10326 10320 10312 10303 10295 10288 10281 10274 10267
10695 10695 10695 10694 10694 10693 10692 10691 10690 10688 10687 10685 10683 10680 10678 10676 10674 10672 10670 10668 10665 10661 10658 10655 10652 10649 10646 10642 10638 10635 10631 10627 10623 10619 10615 10611 10607 10603 10598 10594 10589 10583 10578 10574 10568 10561 10555 10548 10541 10535 10528 10521 10515 10509 10503 10496 10490 10485 10479 10473 10466 10459 10451 10443 10436 10429 10422 10412 10400 10392 10383 10379 10380 10367 10351 10346 10337 10328 10323 10315 10308 10299 10289 10281 10273 10265 10259 10251
10696 10695 10695 10694 10693 10692 10691 10690 10688 10686 10684 10682 10680 10678 10676 10674 10672 10670 10667 10665 10661 10658 10655 10652 10649 10646 10643 10639 10636 10632 10629 10624 10620 10616 10612 10608 10604 10600 10595 10591 10586 10580 10573 10567 10561 10555 10548 10542 10535 10529 10521 10514 10508 10502 10496 10489 10483 10477 10471 10465 10458 10450 10443 10434 10428 10422 10414 10404 10391 10382 10373 10364 10364 10358 10342 10333 10328 10320 10313 10306 10298 10288 10278 10270 10262 10254 10246 10239
10695 10694 10694 10693 10692 10690 10689 10688 10686 10684 10682 10680 10678 10676 10674 10672 10670 10667 10664 10661 10658 10655 10653 10650 10647 10644 10641 10638 10635 10631 10626 10622 10618 10614 10610 10606 10600 10595 10588 10582 10576 10571 10566 10560 10555 10548 10541 10535 10529 10523 10516 10508 10500 10493 10488 10482 10476 10470 10464 10459 10453 10445 10437 10427 10420 10414 10408 10399 10385 10376 10370 10353 10344 10345 10336 10325 10317 10309 10303 10296 10286 10275 10265 10256 10249 10241 10234 10227
10694 10693 10692 10691 10690 10689 10687 10686 10684 10682 10680 10679 10676 10674 10672 10670 10667 10664 10661 10658 10656 10654 10651 10648 10646 10643 10640 10636 10632 10628 10623 10619 10615 10610 10605 10600 10593 10586 10579 10573 10567 10561 10557 10553 10549 10544 10538 10532 10525 10519 10512 10504 10496 10487 10480 10474 10468 10461 10454 10450 10445 10440 10434 10425 10417 10410 10403 10395 10379 10370 10368 10352 10333 10329 10326 10318 10308 10297 10289 10280 10269 10260 10251 10242 10234 10225 10218 10212
10693 10692 10691 10690 10689 10687 10686 10684 10683 10681 10679 10677 10675 10673 10670 10667 10664 10661 10659 10657 10654 10652 10649 10646 10644 10640 10637 10633 10629 10626 10622 10618 10613 10608 10603 10598 10593 10587 10581 10576 10569 10562 10556 10549 10544 10539 10534 10528 10521 10514 10507 10501 10495 10486 10477 10470 10462 10455 10447 10440 10435 10432 10429 10422 10414 10408 10402 10391 10372 10357 10354 10345 10329 10318 10313 10308 10299 10288 10278 10265 10253 10245 10236 10230 10220 10209 10203 10198
10692 10691 10690 10689 10687 10686 10685 10683 10681 10679 10677 10675 10673 10670 10667 10664 10662 10660 10658 10655 10653 10650 10647 10644 10640 10637 10634 10630 10627 10624 10620 10616 10611 10606 10602 10597 10593 10588 10581 10575 10569 10562 10555 10547 10541 10534 10528 10523 10517 10511 10504 10497 10492 10485 10476 10468 10458 10448 10438 10428 10420 10413 10408 10403 10396 10391 10389 10382 10365 10346 10335 10326 10317 10310 10301 10295 10288 10278 10267 10253 10242 10233 10224 10216 10206 10195 10189 10182
10691 10690 10689 10688 10687 10685 10684 10682 10680 10678 10676 10674 10671 10668 10665 10663 10661 10658 10656 10653 10651 10648 10645 10642 10639 10635 10632 10629 10626 10622 10618 10613 10609 10604 10599 10594 10588 10582 10576 10570 10564 10558 10551 10544 10537 10531 10526 10521 10514 10508 10501 10493 10486 10477 10467 10458 10448 10438 10426 10415 10405 10394 10386 10379 10371 10364 10361 10360 10352 10338 10323 10303 10294 10296 10288 10277 10270 10260 10249 10239 10229 10221 10211 10200 10191 10182 10173 10162
10691 10690 10689 10688 10686 10685 10683 10680 10679 10677 10674 10671 10668 10665 10664 10661 10659 10656 10654 10652 10649 10646 10644 10641 10639 10635 10632 10628 10624 10620 10616 10611 10606 10601 10596 10591 10585 10580 10574 10568 10562 10555 10549 10541 10533 10526 10520 10515 10508 10501 10494 10486 10478 10468 10458 10447 10437 10428 10417 10406 10396 10385 10376 10368 10360 10350 10340 10338 10334 10326 10315 10290 10272 10276 10272 10260 10252 10240 10228 10221 10213 10205 10196 10185 10176 10170 10158 10145
10691 10690 10689 10687 10686 10683 10681 10679 10677 10675 10672 10669 10666 10664 10662 10660 10657 10655 10653 10650 10647 10645 10643 10640 10637 10634 10630 10626 10622 10618 10614 10609 10604 10599 10593 10588 10583 10578 10571 10566 10560 10553 10547 10540 10532 10523 10514 10507 10500 10493 10484 10477 10469 10460 10450 10439 10428 10418 10408 10397 10386 10377 10367 10358 10353 10346 10334 10327 10320 10313 10304 10283 10262 10258 10253 10243 10234 10221 10209 10203 10197 10189 10181 10173 10165 10156 10144 10130
10690 10690 10688 10686 10684 10681 10679 10677 10675 10672 10670 10667 10665 10663 10661 10659 10656 10654 10651 10649 10647 10644 10642 10639 10636 10632 10628 10624 10620 10616 10612 10607 10601 10596 10590 10585 10579 10574 10568 10562 10556 10549 10542 10536 10528 10520 10511 10501 10492 10485 10477 10469 10462 10453 10442 10430 10419 10409 10399 10388 10377 10367 10357 10343 10334 10332 10327 10319 10311 10303 10288 10268 10250 10242 10233 10225 10214 10200 10191 10187 10182 10175 10166 10160 10153 10141 10128 10117
10690 10689 10687 10685 10682 10680 10677 10675 10673 10671 10668 10665 10664 10663 10660 10658 10656 10653 10650 10648 10646 10643 10641 10638 10634 10631 10628 10624 10619 10614 10609 10604 10598 10593 10587 10582 10576 10570 10564 10558 10551 10544 10537 10530 10522 10515 10506 10497 10487 10479 10471 10463 10454 10445 10434 10423 10412 10401 10390 10379 10368 10358 10350 10336 10318 10309 10307 10301 10295 10291 10278 10253 10236 10227 10218 10209 10197 10181 10173 10171 10166 10159 10149 10143 10136 10124 10114 10106
10690 10688 10685 10683 10680 10678 10676 10674 10671 10669 10666 10665 10664 10663 10660 10657 10655 10652 10650 10648 10645 10643 10640 10637 10634 10630 10627 10623 10618 10613 10608 10602 10596 10590 10584 10578 10572 10566 10559 10553 10546 10539 10532 10524 10516 10508 10501 10493 10483 10472 10463 10455 10447 10438 10428 10418 10408 10396 10385 10375 10365 10354 10345 10333 10315 10299 10293 10289 10281 10277 10269 10244 10220 10211 10205 10196 10184 10168 10157 10157 10154 10147 10137 10128 10117 10105 10099 10095
10689 10687 10684 10682 10679 10677 10676 10672 10669 10667 10666 10666 10665 10662 10659 10657 10654 10652 10650 10647 10645 10642 10639 10636 10632 10628 10625 10620 10616 10611 10605 10600 10594 10588 10581 10575 10568 10561 10555 10548 10541 10534 10526 10518 10510 10502 10494 10487 10479 10469 10458 10449 10441 10432 10422 10411 10400 10390 10380 10370 10360 10348 10336 10327 10316 10300 10284 10277 10268 10260 10258 10239 10211 10200 10195 10184 10173 10158 10145 10144 10143 10136 10127 10118 10105 10091 10085 10082
10688 10685 10683 10680 10678 10677 10674 10670 10668 10669 10668 10666 10664 10661 10658 10656 10654 10652 10649 10646 10644 10641 10638 10634 10631 10627 10623 10618 10613 10608 10603 10597 10591 10585 10578 10571 10564 10557 10550 10543 10536 10528 10521 10512 10504 10496 10488 10480 10474 10465 10455 10445 10436 10425 10414 10404 10394 10383 10371 10362 10351 10339 10327 10315 10307 10297 10279 10264 10254 10244 10242 10229 10203 10189 10184 10171 10159 10147 10135 10133 10133 10126 10115 10104 10094 10083 10075 10070
10687 10684 10682 10680 10678 10676 10672 10669 10670 10670 10668 10666 10663 10660 10658 10656 10653 10651 10649 10646 10643 10640 10637 10633 10629 10625 10621 10616 10611 10606 10601 10595 10588 10582 10575 10567 10561 10554 10546 10538 10531 10523 10515 10508 10500 10491 10483 10476 10468 10459 10447 10436 10427 10418 10409 10399 10390 10379 10365 10354 10343 10330 10318 10303 10290 10282 10272 10258 10245 10239 10238 10224 10196 10178 10169 10157 10146 10135 10126 10124 10123 10117 10105 10090 10082 10076 10067 10058
10686 10683 10681 10679 10677 10674 10671 10671 10672 10670 10668 10665 10663 10660 10658 10656 10653 10651 10648 10646 10643 10639 10636 10632 10628 10623 10619 10614 10609 10604 10598 10592 10586 10579 10572 10564 10557 10549 10542 10534 10526 10518 10510 10503 10494 10485 10476 10469 10463 10456 10446 10434 10424 10415 10406 10394 10381 10371 10358 10346 10335 10321 10310 10298 10282 10270 10264 10251 10233 10227 10232 10223 10196 10175 10160 10144 10132 10124 10118 10115 10113 10109 10098 10081 10071 10066 10059 10051
10685 10682 10681 10679 10677 10675 10673 10673 10672 10669 10667 10665 10662 10660 10658 10656 10653 10651 10648 10645 10642 10638 10635 10630 10626 10622 10617 10612 10607 10601 10596 10590 10583 10576 10569 10561 10554 10546 10538 10530 10521 10513 10505 10497 10489 10479 10469 10458 10450 10445 10439 10430 10420 10409 10398 10385 10369 10356 10344 10334 10325 10313 10301 10291 10277 10264 10260 10251 10226 10209 10215 10216 10195 10171 10153 10132 10116 10112 10109 10106 10100 10094 10087 10076 10066 10058 10051 10045
10684 10682 10680 10679 10677 10676 10674 10673 10672 10669 10667 10664 10663 10661 10658 10656 10654 10651 10647 10644 10641 10637 10633 10629 10625 10620 10615 10609 10604 10598 10592 10586 10580 10573 10566 10558 10550 10541 10533 10525 10517 10508 10500 10491 10483 10473 10463 10452 10438 10428 10419 10409 10398 10387 10377 10368 10356 10344 10333 10322 10313 10302 10291 10280 10266 10254 10251 10248 10229 10202 10194 10201 10191 10168 10148 10125 10106 10099 10098 10095 10089 10080 10070 10065 10060 10052 10044 10038
10684 10682 10681 10679 10678 10676 10675 10674 10671 10669 10667 10665 10663 10661 10659 10656 10653 10650 10647 10643 10640 10636 10632 10628 10623 10618 10612 10606 10601 10594 10589 10583 10576 10570 10562 10554 10546 10537 10529 10521 10512 10504 10495 10486 10478 10468 10458 10447 10434 10420 10409 10397 10386 10376 10367 10357 10347 10337 10326 10315 10304 10292 10281 10270 10255 10243 10238 10238 10232 10207 10180 10175 10173 10158 10138 10117 10097 10089 10087 10086 10082 10072 10061 10054 10049 10043 10036 10030
10684 10683 10681 10680 10678 10677 10676 10674 10672 10670 10668 10666 10663 10661 10658 10655 10652 10649 10647 10643 10640 10636 10631 10626 10621 10616 10610 10604 10598 10591 10585 10579 10573 10566 10558 10550 10542 10534 10525 10517 10509 10500 10491 10482 10473 10464 10453 10444 10432 10418 10405 10395 10384 10374 10365 10353 10341 10331 10320 10308 10297 10284 10275 10265 10247 10233 10226 10222 10220 10211 10185 10165 10156 10145 10127 10106 10088 10081 10082 10081 10075 10063 10053 10046 10040 10033 10028 10021
10684 10683 10682 10680 10679 10677 10676 10674 10672 10671 10668 10666 10663 10660 10657 10655 10652 10649 10647 10643 10639 10635 10630 10626 10620 10615 10609 10603 10596 10590 10582 10575 10568 10561 10554 10546 10539 10530 10522 10514 10505 10497 10488 10478 10469 10460 10450 10440 10430 10417 10403 10392 10381 10370 10362 10352 10337 10324 10313 10301 10289 10276 10267 10259 10242 10227 10218 10208 10198 10193 10180 10159 10143 10134 10122 10103 10082 10073 10075 10074 10065 10053 10044 10036 10029 10023 10018 10013
10684 10683 10682 10681 10679 10678 10677 10675 10673 10671 10669 10666 10663 10660 10657 10655 10652 10649 10646 10642 10638 10634 10630 10625 10620 10614 10609 10603 10596 10590 10582 10574 10567 10559 10551 10544 10536 10528 10519 10511 10502 10493 10484 10475 10465 10455 10446 10435 10426 10415 10402 10390 10378 10365 10355 10347 10335 10321 10308 10297 10286 10271 10257 10246 10236 10225 10217 10205 10186 10172 10163 10150 10135 10123 10114 10099 10078 10066 10066 10064 10053 10043 10036 10028 10021 10015 10009 10005
10685 10684 10683 10681 10680 10679 10677 10676 10673 10671 10669 10666 10663 10660 10658 10655 10652 10649 10646 10642 10637 10633 10628 10624 10619 10614 10608 10602 10595 10589 10582 10574 10566 10558 10550 10542 10533 10525 10516 10507 10499 10490 10480 10470 10460 10450 10440 10430 10421 10411 10400 10388 10377 10364 10351 10340 10330 10318 10306 10295 10283 10271 10256 10239 10225 10216 10211 10203 10189 10170 10155 10145 10132 10118 10106 10090 10070 10060 10063 10060 10048 10037 10030 10023 10017 10011 10004 9999
10685 10684 10683 10682 10681 10680 10678 10676 10674 10671 10669 10666 10663 10661 10658 10655 10652 10649 10645 10641 10636 10632 10627 10622 10618 10612 10606 10600 10594 10587 10580 10572 10564 10556 10548 10540 10531 10522 10513 10504 10495 10485 10475 10465 10456 10445 10436 10426 10417 10409 10398 10384 10372 10361 10349 10338 10325 10313 10303 10293 10279 10266 10255 10236 10213 10197 10187 10180 10175 10167 10154 10143 10132 10120 10110 10094 10070 10055 10057 10058 10048 10036 10028 10018 10011 10006 10000 9993
10686 10685 10684 10683 10682 10680 10678 10676 10674 10671 10669 10666 10663 10661 10658 10655 10652 10648 10644 10640 10635 10631 10626 10621 10616 10611 10605 10598 10592 10585 10578 10570 10562 10554 10545 10536 10528 10518 10510 10501 10491 10481 10471 10461 10451 10441 10432 10422 10413 10404 10395 10383 10368 10354 10340 10331 10323 10311 10296 10283 10269 10257 10249 10233 10210 10192 10178 10165 10157 10152 10145 10137 10127 10115 10107 10096 10072 10049 10044 10047 10043 10035 10026 10015 10006 10000 9994 9988